Regional Weather Roundup
Issued by NWS Newport/Morehead, NC

Home | Current Version | Previous Version | Text Only | Print | Product List | Glossary On
Versions: 1 2 3 4 5 6 7 8 9 10 11 12 13 14 15 16 17 18 19 20 21 22 23 24 25 26 27 28 29 30 31 32 33 34 35 36 37 38 39 40 41 42 43 44 45 46 47 48 49 50
000
ASUS42 KMHX 070124
RWRMHX
WEATHER ROUNDUP FOR EASTERN NORTH CAROLINA
NATIONAL WEATHER SERVICE NEWPORT/MOREHEAD CITY NC
900 PM EDT WED MAY 06 2015

NOTE: "FAIR" INDICATES FEW OR NO CLOUDS BELOW 12,000 FEET
WITH NO SIGNIFICANT WEATHER AND/OR OBSTRUCTIONS TO VISIBILITY

NCZ015>017-031-032-045>047-102-103-070200-
NORTH COAST

CITY           SKY/WX    TMP DP  RH WIND       PRES   REMARKS
EDENTON        CLOUDY    64  59  84 CALM      30.17R
ELIZABETH CITY CLOUDY    65  59  81 E6        30.17S
KITTY HAWK     CLOUDY    63  58  86 CALM      30.17R
MANTEO         CLOUDY    64  61  90 E5        30.17S

$$

NCZ045>047-081-094-103-104-070200-
CENTRAL COAST

CITY           SKY/WX    TMP DP  RH WIND       PRES   REMARKS
FRISCO         CLOUDY    66  59  78 E9        30.15S
SWANQUARTER      N/A     66 N/A N/A E2        30.12S

$$

NCZ095-097-098-100-101-070200-
SOUTHERN COAST

CITY           SKY/WX    TMP DP  RH WIND       PRES   REMARKS
BEAUFORT       CLOUDY    68  59  73 NE7       30.13S
CEDAR ISLAND     N/A     68 N/A N/A NE8       30.18S
JACKSONVILLE   CLOUDY    68  59  73 NE10      30.13S
PINEY ISLAND   CLOUDY   N/A N/A N/A NE10      30.14S
WILMINGTON     CLOUDY    65  58  78 NE6       30.12S


$$

NCZ011>013-027>030-043-044-078>080-089-090>093-098-070200-
COASTAL PLAIN

CITY           SKY/WX    TMP DP  RH WIND       PRES   REMARKS
AHOSKIE        MOCLDY    65  58  80 CALM      30.17R
CLINTON        CLOUDY    67  57  71 CALM      30.13S
ELIZABETHTOWN  MOCLDY    66  56  71 CALM      30.13R
GOLDSBORO      CLOUDY    65  55  69 E3        30.12S
GREENVILLE     CLOUDY    68  57  68 SE3       30.16S
HAVELOCK       CLOUDY    67  60  78 NE6       30.15S
KENANSVILLE    CLOUDY    66  56  69 E3        30.15R
KINSTON        CLOUDY    68  55  64 E5        30.15S
NEW BERN       CLOUDY    67  58  72 E5        30.15S
RICHLANDS      CLOUDY    64  55  72 NE6       30.15R
ROCKY MOUNT    CLOUDY    69  54  58 SE3       30.15R
WASHINGTON     CLOUDY    64  57  80 CALM      30.16S
WHITEVILLE     MOCLDY    67  56  67 E3        30.11F

$$

AMZ130-135-150-152-154-156-158-170-250-252-270-ANZ085-086-088-633-658-670-070200-
MARINE OBSERVATIONS

STATION/POSITION TIME  TEMP    WIND        PRES    WAVE   SWELL
                       AIR SEA DIR/SP/G            HT/PER HT/PER
                 (UTC) (F)     (DEG/KT/KT) (MB)    (FT/S) (FT/S)
CHESAPEAKE LIGHT 0100   64     160/ 13/ 13 1022.2
64 E VA BEACH    0050   64 60   70/  4/  6 1021.7    2/ 8   2/ 8
DUCK             0100   62 51   40/  3/  3 1021.1
2 E DUCK         0011      59                N/A     2/ 8
OREGON INLET     0100   66 71   50/  7/  9 1021.4
13E OREGON INLT  0100      63                N/A     3/ 8
HATTERAS CG      0000   70 69   90/  4/  6 1020.4
DIAMOND BUOY     0050   71 74  100/ 16/ 17 1020.6    5/ 5   2/ 8
CAPE LOOKOUT     0100   69      80/ 12/ 13 1020.0
BEAUFORT LAB     0000   69 69   40/  5/  8 1019.5
27 SE WRIGHTSVLE 0100   68 71   70/ 14/ 17   N/A
5 SE WRIGHTSVLE  0008   69 68   50/ 12/ 17 1019.6
225 S CAPE HAT   0050   71 71  130/ 14/ 17 1016.3    8/ 8   5/ 8
41 SE CHARLESTON 0050   71 74   20/ 21/ 27 1016.6    8/ 9   5/ 9

$$



USA.gov is the U.S. government's official web portal to all federal, state and local government web resources and services.